Location: City of Moscow
(46.7306°N, 116.9989°W)
Time: 15:16:45
(UTC+00:00)

Cosmos 1812 Rocket - Pass Details

Date: 11 December 2025
Orbit: 600 x 624 km, 82.5° (Epoch: 16 January)

Event Time Altitude Azimuth Distance (km) Brightness Sun altitude
Rises 14:42:05 0° 342° (NNW) 2,864 6.6 -6.9°
Reaches altitude 10° 14:44:26 10° 334° (NNW) 1,958 5.7 -6.5°
Maximum altitude 14:48:21 34° 269° (W) 995 4.2 -5.9°
Drops below altitude 10° 14:52:16 10° 204° (SSW) 1,954 6.2 -5.3°
Sets 14:54:37 0° 195° (SSW) 2,857 7.2 -5.0°
